TimeEET,TemperatureF,Dew PointF,Humidity,Sea Level PressureIn,VisibilityMPH,Wind Direction,Wind SpeedMPH,Gust SpeedMPH,PrecipitationIn,Events,Conditions,WindDirDegrees,DateUTC
12:20 AM,46.4,33.8,62,29.95,4.3,South,3.5,-,N/A,,Unknown,190,2013-03-18 22:20:00
12:50 AM,46.4,33.8,62,29.92,5.0,South,3.5,-,N/A,,Unknown,170,2013-03-18 22:50:00
1:20 AM,46.4,35.6,66,29.92,5.0,South,3.5,-,N/A,,Unknown,170,2013-03-18 23:20:00
1:50 AM,46.4,37.4,71,29.92,5.0,South,4.6,-,N/A,,Unknown,180,2013-03-18 23:50:00
2:00 AM,47,36,57,29.93,12,South,4.6,,,,Mostly Cloudy,180,2013-03-19 00:00:00
2:20 AM,48.2,39.2,71,29.89,5.0,SW,8.1,-,N/A,,Mostly Cloudy,220,2013-03-19 00:20:00
2:50 AM,48.2,37.4,66,29.89,5.0,SSW,9.2,-,N/A,,Mostly Cloudy,200,2013-03-19 00:50:00
3:20 AM,48.2,37.4,66,29.89,5.0,SSW,6.9,-,N/A,,Mostly Cloudy,210,2013-03-19 01:20:00
3:50 AM,48.2,37.4,66,29.86,5.0,SSW,5.8,-,N/A,,Mostly Cloudy,200,2013-03-19 01:50:00
4:20 AM,48.2,39.2,71,29.86,5.0,South,6.9,-,N/A,,Mostly Cloudy,180,2013-03-19 02:20:00
4:50 AM,48.2,37.4,66,29.86,6.2,SSW,9.2,-,N/A,,Mostly Cloudy,200,2013-03-19 02:50:00
5:20 AM,50.0,41.0,71,29.86,6.2,South,9.2,-,N/A,,Mostly Cloudy,190,2013-03-19 03:20:00
5:50 AM,50.0,39.2,66,29.86,6.2,SSW,15.0,-,N/A,,Mostly Cloudy,200,2013-03-19 03:50:00
6:20 AM,50.0,39.2,66,29.86,6.2,SSW,15.0,-,N/A,,Mostly Cloudy,200,2013-03-19 04:20:00
6:34 AM,50.0,39.2,66,29.86,6.2,SSW,15.0,-,N/A,Rain,Light Rain Showers,200,2013-03-19 04:34:00
6:50 AM,48.2,41.0,76,29.83,6.2,South,13.8,-,N/A,,Mostly Cloudy,190,2013-03-19 04:50:00
7:20 AM,48.2,41.0,76,29.83,6.2,South,13.8,-,N/A,,Mostly Cloudy,190,2013-03-19 05:20:00
8:00 AM,50,40,60,29.85,6,SSW,13.8,,,,Partly Cloudy,200,2013-03-19 06:00:00
8:20 AM,50.0,39.2,66,29.83,6.2,SSW,16.1,-,N/A,,Mostly Cloudy,210,2013-03-19 06:20:00
8:50 AM,51.8,41.0,67,29.83,6.2,SW,18.4,-,N/A,,Mostly Cloudy,220,2013-03-19 06:50:00
9:20 AM,53.6,41.0,62,29.83,6.2,SSW,19.6,-,N/A,,Mostly Cloudy,210,2013-03-19 07:20:00
9:50 AM,51.8,39.2,62,29.83,6.2,SW,18.4,-,N/A,,Mostly Cloudy,220,2013-03-19 07:50:00
10:20 AM,53.6,41.0,62,29.80,6.2,SW,20.7,-,N/A,,Scattered Clouds,230,2013-03-19 08:20:00
10:50 AM,53.6,41.0,62,29.80,6.2,SW,17.3,-,N/A,,Scattered Clouds,220,2013-03-19 08:50:00
11:20 AM,55.4,41.0,58,29.80,6.2,SW,17.3,-,N/A,,Scattered Clouds,220,2013-03-19 09:20:00
11:50 AM,55.4,41.0,58,29.80,6.2,SW,11.5,-,N/A,,Mostly Cloudy,220,2013-03-19 09:50:00
12:20 PM,55.4,41.0,58,29.77,6.2,SSW,11.5,-,N/A,,Partly Cloudy,210,2013-03-19 10:20:00
12:50 PM,57.2,42.8,59,29.77,6.2,SW,12.7,-,N/A,,Partly Cloudy,220,2013-03-19 10:50:00
1:20 PM,57.2,42.8,59,29.74,6.2,SSW,15.0,-,N/A,,Partly Cloudy,210,2013-03-19 11:20:00
1:50 PM,57.2,42.8,59,29.74,-9999.0,SW,13.8,-,N/A,,Clear,220,2013-03-19 11:50:00
2:00 PM,57,42,46,29.75,6,SW,13.8,,,,,220,2013-03-19 12:00:00
2:20 PM,59.0,42.8,55,29.74,-9999.0,SSW,11.5,-,N/A,,Clear,210,2013-03-19 12:20:00
2:50 PM,57.2,42.8,59,29.74,-9999.0,SSW,11.5,-,N/A,,Clear,210,2013-03-19 12:50:00
3:20 PM,59.0,42.8,55,29.71,-9999.0,SSW,13.8,-,N/A,,Clear,210,2013-03-19 13:20:00
3:50 PM,59.0,42.8,55,29.74,-9999.0,SW,11.5,-,N/A,,Clear,230,2013-03-19 13:50:00
4:20 PM,59.0,42.8,55,29.74,-9999.0,SW,4.6,-,N/A,,Clear,220,2013-03-19 14:20:00
4:50 PM,57.2,42.8,59,29.71,-9999.0,WSW,9.2,-,N/A,,Clear,240,2013-03-19 14:50:00
5:20 PM,55.4,42.8,63,29.71,-9999.0,SW,8.1,-,N/A,,Clear,230,2013-03-19 15:20:00
5:50 PM,55.4,42.8,63,29.74,6.2,West,9.2,-,N/A,,Scattered Clouds,260,2013-03-19 15:50:00
6:20 PM,55.4,42.8,63,29.74,6.2,West,9.2,-,N/A,,Scattered Clouds,260,2013-03-19 16:20:00
6:50 PM,55.4,44.6,67,29.74,6.2,WSW,9.2,-,N/A,,Scattered Clouds,240,2013-03-19 16:50:00
7:20 PM,55.4,44.6,67,29.77,6.2,SW,5.8,17.3,N/A,,Scattered Clouds,230,2013-03-19 17:20:00
7:50 PM,55.4,44.6,67,29.77,6.2,SW,13.8,-,N/A,,Scattered Clouds,220,2013-03-19 17:50:00
8:00 PM,56,44,54,29.79,6,SW,13.8,,,,Scattered Clouds,220,2013-03-19 18:00:00
8:20 PM,55.4,44.6,67,29.77,6.2,SW,11.5,-,N/A,,Scattered Clouds,220,2013-03-19 18:20:00
8:50 PM,55.4,44.6,67,29.80,6.2,SSW,10.4,-,N/A,,Scattered Clouds,210,2013-03-19 18:50:00
9:20 PM,55.4,44.6,67,29.80,6.2,SW,11.5,-,N/A,,Scattered Clouds,220,2013-03-19 19:20:00
9:50 PM,53.6,44.6,72,29.80,6.2,SW,9.2,-,N/A,,Scattered Clouds,220,2013-03-19 19:50:00
10:20 PM,55.4,44.6,67,29.80,6.2,SW,11.5,-,N/A,,Scattered Clouds,220,2013-03-19 20:20:00
10:50 PM,55.4,44.6,67,29.80,6.2,SW,10.4,-,N/A,,Scattered Clouds,220,2013-03-19 20:50:00
11:20 PM,53.6,44.6,72,29.83,6.2,SW,6.9,-,N/A,,Scattered Clouds,220,2013-03-19 21:20:00
11:50 PM,53.6,44.6,72,29.83,6.2,SW,8.1,-,N/A,,Scattered Clouds,230,2013-03-19 21:50:00